Home > Time Zones > World Clock > Weather > Yemen > Aden > Past weeks

Flag for Yemen Weather past 2 weeks in Aden, Yemen

Now
95 °F

Clear.


Feels Like: 96 °F
Forecast: 81 / 86 °F
Wind: 28 mph from Southwest

Location: Aden

Current Time: Jul 31, 2014 at 3:16:27 PM

Latest Report: Jul 31, 2014 at 2:00 PM


Visibility: 4 mi

Pressure: 29.59 "Hg

Humidity: 34%

Dew point: 63 °F

Location of AdenLocation

Historic Weather in Aden — Graph

°F

Aden temperature yesterday

Maximum temperature yesterday: 97 °F (at 4:00 PM)
Minimum temperature yesterday: 86 °F (at 12:00 AM)
Average temperature yesterday: 91 °F

Past Weeks' High & Low Weather Summary

 TemperatureHumidityPressure
High99 °F (Jul 20, 2:00 PM)75% (Jul 17, 4:00 AM)29.77 "Hg (Jul 17, 4:00 AM)
Low84 °F (Jul 27, 7:00 AM)25% (Jul 30, 5:00 PM)29.47 "Hg (Jul 18, 5:00 PM)
Average91 °F55%29.60 "Hg
* Reported Jul 16 2:00 PM — Jul 31 2:00 PM, Aden, Weather by CustomWeather, © 2014

Note: Actual official high and low records may vary slightly from our data, if they occured in-between our weather recording intervals... More about our weather records

Advertising

Aden weather history for previous 24 hours

 ConditionsComfort  
Time TempWeatherWind HumidityBarometerVisibility
2:00 PM
Jul 31
95 °FClear.28 mph34%29.59 "Hg4 mi
1:00 PM95 °FClear.25 mph41%29.62 "Hg4 mi
12:00 PM93 °FSunny.15 mph53%29.65 "Hg10 mi
10:00 AM93 °FPartly sunny.6 mph39%29.71 "HgN/A
9:00 AM90 °FBroken clouds.3 mph41%29.68 "HgN/A
8:00 AM86 °FBroken clouds.10 mph52%29.68 "HgN/A
7:00 AM86 °FLight rain. Broken clouds.10 mph59%29.68 "HgN/A
6:00 AM86 °FPartly sunny.1 mph55%29.65 "HgN/A
5:00 AM86 °FPassing clouds.No wind59%29.65 "HgN/A
4:00 AM88 °FClear.1 mph55%29.65 "Hg10 mi
3:00 AM88 °FClear.2 mph46%29.65 "Hg10 mi
2:00 AM88 °FClear.5 mph46%29.65 "Hg10 mi
1:00 AM90 °FClear.5 mph38%29.65 "Hg10 mi
12:00 AM88 °FClear.1 mph43%29.68 "Hg10 mi
11:00 PM
Jul 30
90 °FClear.5 mph38%29.65 "Hg10 mi
10:00 PM90 °FClear.6 mph46%29.65 "Hg10 mi
9:00 PM91 °FClear.6 mph34%29.62 "Hg10 mi
8:00 PM91 °FClear.6 mph34%29.62 "Hg10 mi
7:00 PM91 °FClear.7 mph38%29.59 "Hg10 mi
6:00 PM97 °FSunny.13 mph25%29.59 "Hg10 mi
5:00 PM97 °FSunny.18 mph25%29.56 "Hg10 mi
4:00 PM97 °FSunny.18 mph28%29.56 "Hg10 mi
3:00 PM95 °FSunny.21 mph30%29.59 "Hg10 mi
Weather by CustomWeather, © 2014

See weather overviewHow to use our weather pages